www.pogodaiklimat.ru

Погода и климат >> Архив погоды >> Австралия >> Longreach Airport


ПОГОДА в Longreach Airport

  • Прогноз погоды в Longreach Airport
  • Монитор погоды в Longreach Airport
  • Климат города

АРХИВ ПОГОДЫ в Longreach Airport

Время (UTC), дата Ветер
(напр.,м/с)
 
Видим.   Явления Облачность Т
(С)
Тd
(С)
f
(%)
Тe
(С)
Тes
(С)
Комфортность P
(гПа)
Po
(гПа)
Тmin
(С)
Tmax
(С)
R
(мм)
R24
(мм)
S
(см)
20 10.07 ЮВ 5 н/о н/о +4.8 -3.0 57 +1 +1 1020.9 998.0
21 10.07 Ю 3 н/о н/о +3.6 -3.4 60 0 0 1021.6 998.7
23 10.07 ЮВ 4 н/о н/о +9.9 -2.1 43 +8 +8 1022.4 999.5
00 11.07 В 3 н/о н/о +11.2 -4.1 34 +10 +10 1022.7 999.8
02 11.07 С 2 н/о н/о +21.2 +2.0 28 +21 +21 комфорт 1021.3 998.4 +3.5
03 11.07 С 3 н/о н/о +22.3 -1.1 21 +21 +21 комфорт 1020.2 997.3
05 11.07 Ю 3 н/о н/о +22.7 -2.8 18 +21 +21 комфорт 1018.5 995.7
06 11.07 З 2 н/о н/о +22.4 -3.8 17 +21 +21 комфорт 1018.2 995.4
08 11.07 ЮЗ 3 н/о н/о +18.9 -4.5 20 +19 +19 1018.9 996.1
09 11.07 ЮЗ 4 н/о н/о +15.8 -5.3 23 +15 +15 1019.4 996.6
11 11.07 Ю 4 н/о н/о +12.8 -6.2 26 +12 +12 1020.3 997.4
12 11.07 Ю 4 н/о н/о +11.5 -6.8 27 +10 +10 1020.5 997.6
14 11.07 Ю 3 н/о н/о +9.2 -6.6 32 +8 +8 1020.3 997.4 +23.3
15 11.07 Ю 3 н/о н/о +7.4 -6.3 37 +5 +5 1020.0 997.1
17 11.07 Ю 3 н/о н/о +6.2 -6.4 40 +4 +4 1019.4 996.6
18 11.07 Ю 3 н/о н/о +5.9 -6.3 41 +3 +3 1019.2 996.4
20 11.07 штиль 0 н/о н/о +3.1 -5.8 52 +3 +3 1019.5 996.7
21 11.07 Ю 3 н/о н/о +3.3 -5.8 51 0 0 1019.7 996.9
23 11.07 ЮВ 5 н/о н/о +10.7 -3.4 37 +9 +9 1020.9 998.0
00 12.07 ЮВ 3 н/о н/о +15.5 -2.4 29 +15 +15 1021.0 998.1
02 12.07 В 3 н/о н/о +20.5 -3.2 20 +21 +21 комфорт 1019.7 996.9 +1.2
03 12.07 ЮЗ 3 н/о н/о +21.7 -1.6 21 +21 +21 комфорт 1018.6 995.8
05 12.07 Ю 4 н/о н/о +23.1 -4.1 16 +21 +21 комфорт 1017.0 994.2
06 12.07 Ю 4 н/о н/о +22.7 -5.2 15 +21 +21 комфорт 1016.7 993.9
08 12.07 Ю 3 н/о н/о +19.7 -6.0 17 +20 +20 1017.2 994.4
09 12.07 Ю 3 н/о н/о +16.6 -5.8 21 +17 +17 1017.9 995.1
11 12.07 Ю 3 н/о н/о +13.0 -7.1 24 +12 +12 1018.9 996.1
12 12.07 Ю 4 н/о н/о +12.5 -7.0 25 +11 +11 1019.1 996.3
14 12.07 Ю 4 н/о н/о +11.2 -6.6 28 +9 +9 1018.9 996.1 +23.4
15 12.07 ЮВ 6 н/о н/о +12.1 -5.4 29 +10 +10 1019.1 996.3
17 12.07 ЮВ 5 н/о н/о +9.1 -5.2 36 +6 +6 1018.6 995.8
18 12.07 ЮВ 5 н/о н/о +8.1 -5.0 39 +5 +5 1018.3 995.5
20 12.07 Ю 4 н/о н/о +6.6 -4.8 44 +4 +4 1018.6 995.8
21 12.07 ЮВ 4 н/о н/о +5.5 -4.9 47 +2 +2 1019.2 996.4
23 12.07 ЮВ 6 н/о н/о +12.1 -2.1 37 +10 +10 1019.8 997.0
00 13.07 ЮВ 4 н/о н/о +15.5 -1.5 31 +15 +15 1019.8 997.0
02 13.07 ЮВ 4 н/о н/о +20.6 -2.5 21 +20 +20 1018.8 996.0 +5.5
03 13.07 Ю 3 н/о н/о +21.4 -4.6 17 +20 +20 1017.9 995.1
05 13.07 ЮЗ 3 н/о н/о +22.1 -7.6 13 +20 +20 1016.1 993.3
06 13.07 Ю 5 н/о н/о +21.8 -7.8 13 +20 +20 1015.9 993.1
08 13.07 Ю 4 н/о н/о +19.4 -7.0 16 +19 +19 1016.9 994.1
09 13.07 Ю 4 н/о н/о +16.2 -8.1 18 +16 +16 1017.7 994.9
11 13.07 Ю 5 н/о н/о +14.8 -7.9 20 +14 +14 1018.6 995.8
12 13.07 Ю 5 н/о н/о +12.9 -8.9 21 +11 +11 1018.8 996.0
14 13.07 Ю 5 н/о н/о +10.7 -9.6 23 +9 +9 1018.8 996.0 +23.0
15 13.07 ЮВ 5 н/о н/о +9.3 -8.7 27 +7 +7 1018.9 996.1
17 13.07 ЮВ 5 н/о н/о +7.0 -8.5 32 +4 +4 1018.5 995.7
18 13.07 ЮВ 5 н/о н/о +6.6 -8.5 33 +3 +3 1018.4 995.6
20 13.07 ЮВ 5 н/о н/о +4.5 -8.2 39 +1 +1 1018.8 996.0
21 13.07 ЮВ 5 н/о н/о +3.9 -8.1 41 -0 -0 1019.0 996.2
23 13.07 ЮВ 5 н/о н/о +11.2 -5.7 30 +9 +9 1019.7 996.9
00 14.07 ЮВ 4 н/о н/о +15.6 -3.8 26 +15 +15 1019.7 996.9
02 14.07 В 4 н/о н/о +20.7 -1.8 22 +21 +21 комфорт 1018.2 995.4 +3.9
03 14.07 СЗ 2 н/о н/о +21.2 -2.6 20 +20 +20 1016.9 994.1
05 14.07 СВ 3 н/о н/о +23.7 -3.6 16 +22 +22 комфорт 1015.0 992.3
06 14.07 Ю 3 н/о н/о +22.6 -4.5 16 +21 +21 комфорт 1014.9 992.2
08 14.07 Ю 3 н/о н/о +19.8 -5.2 18 +20 +20 1014.7 992.0
09 14.07 Ю 3 н/о н/о +16.6 -6.4 20 +16 +16 1015.2 992.5
11 14.07 Ю 4 н/о н/о +12.3 -7.7 24 +11 +11 1016.5 993.7
12 14.07 ЮВ 5 н/о н/о +12.6 -9.1 21 +11 +11 1016.5 993.7
14 14.07 ЮВ 5 н/о н/о +9.8 -9.8 24 +8 +8 1016.6 993.8 +23.9
15 14.07 ЮВ 4 н/о н/о +8.7 -10.2 25 +6 +6 1016.4 993.6
17 14.07 В 2 н/о н/о +7.6 -9.3 29 +6 +6 1015.8 993.0
18 14.07 Ю 2 н/о н/о +4.9 -11.2 30 +3 +3 1015.6 992.8
20 14.07 Ю 3 н/о н/о +4.0 -10.4 34 +2 +2 1016.1 993.3
21 14.07 ЮВ 4 н/о н/о +5.2 -10.1 32 +2 +2 1016.4 993.6
23 14.07 В 3 н/о н/о +12.3 -7.1 25 +11 +11 1017.3 994.5
00 15.07 СВ 4 н/о н/о +17.1 -2.5 26 +17 +17 1017.3 994.5
02 15.07 С 4 н/о н/о +22.0 +5.0 33 +22 +22 комфорт 1015.6 992.8 +3.1
03 15.07 С 6 н/о н/о +23.9 +4.3 28 +24 +24 комфорт 1014.1 991.4
05 15.07 С 5 н/о н/о +24.6 +0.8 21 +23 +23 комфорт 1012.5 989.8
06 15.07 СЗ 3 н/о н/о +24.5 +0.8 21 +23 +23 комфорт 1012.0 989.3
08 15.07 В 3 н/о н/о +20.8 +0.6 26 +21 +21 комфорт 1011.6 988.9
09 15.07 ЮВ 3 н/о н/о +18.9 +1.0 30 +19 +19 1011.9 989.2
11 15.07 З 4 н/о н/о +13.8 -1.4 35 +13 +13 1013.2 990.5
12 15.07 Ю 2 н/о н/о +13.8 -1.4 35 +14 +14 1013.4 990.7
14 15.07 ЮЗ 4 н/о н/о +12.3 -1.2 39 +11 +11 1014.5 991.8 +25.6
15 15.07 ЮЗ 4 н/о н/о +10.9 -3.6 36 +9 +9 1014.9 992.2
17 15.07 ЮЗ 3 н/о н/о +8.1 -8.4 30 +6 +6 1014.8 992.1
18 15.07 ЮЗ 2 н/о н/о +7.0 -8.9 31 +6 +6 1015.0 992.3
20 15.07 З 5 н/о н/о +5.5 -8.4 36 +2 +2 1016.0 993.2
21 15.07 З 3 н/о н/о +4.1 -9.3 37 +2 +2 1016.7 993.9
23 15.07 ЮЗ 3 н/о н/о +10.6 -8.1 26 +9 +9 1018.3 995.5
00 16.07 Ю 2 н/о н/о +15.5 -7.3 20 +16 +16 1018.6 995.8
02 16.07 ЮЗ 5 н/о н/о +20.9 -11.8 10 +20 +20 1017.7 994.9 +3.6
03 16.07 Ю 5 н/о н/о +21.6 -12.6 9 +20 +20 1016.7 993.9
05 16.07 Ю 6 н/о н/о +21.8 -12.4 9 +20 +20 1015.8 993.0
06 16.07 Ю 5 н/о н/о +22.0 -12.3 9 +20 +20 1015.8 993.0
08 16.07 Ю 3 н/о н/о +19.0 -12.1 11 +19 +19 1016.2 993.4
09 16.07 Ю 3 н/о н/о +15.4 -11.1 15 +15 +15 1016.8 994.0
11 16.07 Ю 3 н/о н/о +12.2 -11.4 18 +12 +12 1017.9 995.1
12 16.07 ЮВ 3 н/о н/о +9.2 -12.0 21 +8 +8 1018.2 995.4
14 16.07 Ю 4 н/о н/о +8.3 -11.6 23 +6 +6 1018.0 995.2 +22.9
15 16.07 ЮВ 4 н/о н/о +7.7 -11.6 24 +5 +5 1017.8 995.0
17 16.07 В 2 н/о н/о +6.2 -11.4 27 +5 +5 1017.8 995.0
18 16.07 СВ 3 н/о н/о +3.4 -13.8 27 +1 +1 1017.9 995.1
20 16.07 СВ 1 н/о н/о +2.9 -12.5 31 +2 +2 1018.3 995.5
21 16.07 Ю 4 н/о н/о +2.5 -12.9 31 -1 -1 1018.6 995.8
23 16.07 ЮВ 3 н/о н/о +11.1 -10.4 21 +10 +10 1020.0 997.1
00 17.07 В 4 н/о н/о +16.5 -9.4 16 +16 +16 1020.4 997.5
02 17.07 В 3 н/о н/о +20.9 -11.8 10 +20 +20 1019.1 996.3 +1.1
03 17.07 ЮВ 3 н/о н/о +22.2 -12.1 9 +20 +20 1018.2 995.4
05 17.07 Ю 3 н/о н/о +23.2 -11.4 9 +20 +20 1016.9 994.1
06 17.07 ЮВ 3 н/о н/о +23.4 -12.7 8 +20 +20 1016.9 994.1
08 17.07 Ю 3 н/о н/о +19.5 -12.9 10 +19 +19 1017.4 994.6
09 17.07 Ю 3 н/о н/о +15.8 -13.5 12 +16 +16 1017.6 994.8
11 17.07 Ю 4 н/о н/о +11.5 -12.7 17 +10 +10 1018.6 995.8
12 17.07 ЮВ 2 н/о н/о +9.1 -10.4 24 +9 +9 1019.0 996.2
14 17.07 ЮВ 3 н/о н/о +7.4 -12.9 22 +6 +6 1018.9 996.1 +24.0
15 17.07 ЮВ 4 н/о н/о +7.2 -12.5 23 +5 +5 1018.6 995.8
17 17.07 ЮВ 4 н/о н/о +6.5 -13.1 23 +4 +4 1018.3 995.5
18 17.07 ЮВ 4 н/о н/о +5.8 -13.2 24 +3 +3 1018.2 995.4

 

Местоположение метеостанции Longreach Airport (Квинсленд, Австралия): широта -23.43 долгота 144.28 высота над уровнем моря 192 м.

В архиве по умолчанию представлена погода в Longreach Airport за последнюю неделю. Архивные данные за месяц целиком и за предыдущие месяцы, начиная с января 2011 года, Вы можете получить, выбрав интересующий диапазон дат из раскрывающегося списка и нажав кнопку "Ввод!".


*Определитесь, кто Вы:
робот инопланетянин человек

Внимание! Время в таблицах - всемирное. Для получения местного времени необходимо прибавить поправку, которая в Longreach Airport равна 10 ч.

Смотрите также архив погоды в соседних городах и на ближайших метеорологических станциях:

Погода в Blackall Airport (Квинсленд, Австралия) (161 км)
Погода в Winton Airport (Квинсленд, Австралия) (170 км)
Погода в Hughenden Airport (Квинсленд, Австралия) (290 км)
Погода в Richmond Airport (Квинсленд, Австралия) (327 км)
Погода в Lochington (Квинсленд, Австралия) (335 км)
Погода в Clermont Airport (Квинсленд, Австралия) (349 км)
Погода в Charleville Aero (Квинсленд, Австралия) (387 км)
Погода в Trepell Airport (Квинсленд, Австралия) (392 км)
Погода в Emerald Airport (Квинсленд, Австралия) (398 км)
Погода в Julia Creek Airport (Квинсленд, Австралия) (404 км)

Пояснения к столбцам:

Ветер - указаны скорость ветра в м/с - средняя за 10 мин, порывы в срок и между сроками (в фигурных скобках) и направление, откуда дует ветер: С - северный, СВ - северо-восточный, В - восточный, ЮВ - юго-восточный, Ю - южный, ЮЗ - юго-западный, З - западный, СЗ - северо-западный.
Видимость - горизонтальная дальность видимости в метрах или километрах. При видимости от 1 до 10 км при отсутствии осадков обычно наблюдается дымка, при ухудшении видимости до 1 км и менее - туман. В сухую погоду видимость может ухудшаться дымом, пылью или мглою.
Явления - указаны атмосферные явления, наблюдавшиеся в срок или в последний час перед сроком; фигурными скобками обозначены явления, наблюдавшиеся между сроками (за 1-3 часа до срока); квадратными скобками обозначены град или гололедные отложения с указанием их диаметра в мм.
Облачность - указаны через наклонную черту общая и нижняя облачность в баллах и высота нижней границы облаков в метрах; квадратными скобками обозначены формы облаков: Ci - перистые, Cs - перисто-слоистые, Cc - перисто-кучевые, Ac - высококучевые, As - высокослоистые, Sc - слоисто-кучевые, Ns - слоисто-дождевые, Cu - кучевые, Cb - кучево-дождевые. Подробнее классификацию облаков см. в Атласе облаков (PDF).
T - Температура воздуха - температура, измеренная на высоте 2 м над землей.
Td - Температура точки росы - температура, при понижении до которой содержащийся в воздухе водяной пар достигнет насыщения.
f - Относительная влажность воздуха - влажноcть воздуха, измеренная на высоте 2 м над землей.
Te - Эффективная температура - температура, которую ощущает одетый по сезону человек в тени. Характеристика душности погоды. При расчете учитывается влияние влажности воздуха и скорости ветра на теплоощущения человека.
Tes - Эффективная температура на солнце - температура, которую ощущает человек, с поправкой на солнечный нагрев. Характеристика знойности погоды. Зависит от высоты солнца над горизонтом, облачности и скорости ветра. Ночью, в пасмурную погоду, а также при ветре 12 м/с и более поправка равна нулю.
P - Атмосферное давление - приведенное к уровню моря атмосферное давление.
Po - Атмосферное давление - измеренное на уровне метеостанции атмосферное давление.
Tmin - Минимальная температура - минимум температуры воздуха на высоте 2 м над землей.
Tmax - Максимальная температура - максимум температуры воздуха на высоте 2 м над землей.
R - Количество осадков - Количество выпавших осадков за период времени, мм. При наведении курсора мыши на число - период времени, за который выпало указанное количество осадков.
R24 - Количество осадков - Количество выпавших осадков за 24 часа, мм.
S - Снежный покров - Высота снежного покрова, см. При наведении курсора мыши на число - состояние снежного покрова и степень покрытия местности в баллах.